Temp
55 55 55 54 53 52 48 42 47 65 69 51 46 48 59 61 66 69 67 66 63 63 62 58 60 63 68 79 82 67 69 58 55 63 72 77 71 66 59 51 50 49 50 52
55 55 55 54 53 52 45 38 46 64 63 45 44 51 61 65 65 65 65 64 66 67 59 55 61 67 77 79 74 68 67 55 50 58 63 68 65 67 61 55 51 50 48 51
55 55 55 54 53 53 43 41 44 52 56 53 49 48 54 57 69 67 69 66 65 61 57 57 60 64 75 79 78 70 68 54 57 54 58 62 64 70 67 58 50 52 53 53
55 55 55 54 53 53 45 44 45 48 42 48 49 48 55 56 57 66 65 63 64 61 50 55 57 63 67 74 72 71 65 56 57 61 66 68 67 68 68 59 61 58 59 59
55 55 55 54 53 52 49 42 41 45 43 48 50 48 50 56 61 59 60 57 66 65 55 59 57 59 55 62 67 62 61 57 55 57 67 69 66 70 69 74 74 64 61 56
55 55 55 54 52 50 41 46 46 43 44 46 46 48 53 57 58 61 64 64 62 61 64 66 65 64 62 62 58 61 58 56 52 49 60 63 56 65 69 69 71 69 58 62
55 55 55 55 53 50 40 42 42 39 39 44 47 54 57 57 57 53 64 64 58 67 70 69 62 58 59 65 61 60 58 54 51 49 52 43 60 68 71 69 68 68 64 62
54 55 55 55 54 52 40 42 42 38 35 44 49 52 53 54 56 56 60 64 62 64 63 56 53 52 57 59 63 60 61 55 51 49 46 55 64 68 67 63 63 68 63 64
54 54 55 55 54 52 42 41 45 41 36 40 50 49 51 46 46 50 57 64 63 60 54 52 43 46 51 52 56 57 59 57 54 48 45 45 58 70 76 70 55 69 66 64
54 54 54 55 54 53 44 41 45 41 35 42 46 45 45 50 47 45 50 55 54 57 50 47 45 47 56 50 48 48 50 50 50 48 47 54 63 68 73 56 56 65 66 64
53 54 54 54 54 54 46 41 44 42 35 39 48 54 48 48 47 43 48 49 49 48 45 47 47 48 51 49 50 46 48 46 46 47 45 46 62 66 59 58 61 64 62 60
53 53 54 54 54 53 51 37 47 47 38 39 47 51 54 53 54 48 48 47 47 50 44 46 46 47 47 45 44 52 47 49 47 50 48 57 59 59 61 64 60 60 60 61
53 53 53 54 54 53 52 40 40 40 36 39 39 46 56 55 56 58 47 51 54 52 50 46 46 47 47 43 46 48 53 54 49 50 54 55 58 60 63 63 63 64 63 62
53 53 53 54 53 53 52 47 41 41 37 33 42 59 53 60 57 58 58 57 56 53 52 46 45 48 53 48 50 48 52 53 51 50 54 56 58 60 60 62 63 64 65 63
53 53 53 53 52 52 50 41 43 44 39 33 36 49 54 57 58 60 60 54 53 48 47 46 42 53 50 51 50 48 51 51 48 47 55 54 55 58 62 61 61 63 63 60
52 52 52 52 52 52 41 39 46 47 51 42 33 46 51 57 58 59 56 55 53 52 48 48 52 56 52 45 48 52 56 57 56 54 59 58 60 61 63 62 62 63 63 61
52 52 51 51 51 43 39 42 45 49 49 43 37 37 51 59 56 53 52 54 53 52 53 52 54 54 52 46 43 54 55 55 58 58 58 57 60 58 61 64 64 61 61 59
51 51 51 51 52 48 41 47 52 48 47 47 36 38 45 55 51 52 51 50 52 52 54 54 53 50 48 44 51 56 58 59 58 59 60 57 57 60 61 62 62 58 57 57
51 51 51 47 43 40 45 58 54 46 44 41 41 38 38 54 54 48 48 47 43 51 47 52 51 45 43 49 52 53 58 57 58 59 58 59 57 56 58 59 59 56 55 56
51 46 44 44 46 57 54 47 44 45 44 44 36 41 40 48 46 44 44 46 44 43 49 51 47 45 50 53 56 58 59 59 58 55 52 54 53 56 56 58 58 59 58 58
46 44 45 49 56 46 46 41 40 39 41 40 40 42 41 49 42 41 44 41 42 40 46 46 43 42 50 55 55 56 57 60 61 60 59 58 56 57 56 56 60 58 59 57
40 41 43 42 43 43 40 39 40 40 40 48 47 49 46 47 48 43 43 41 42 39 48 45 40 44 48 51 54 57 55 59 61 62 61 63 58 57 56 56 56 58 59 59
43 40 37 40 39 29 37 36 40 42 47 48 48 46 45 45 46 45 43 41 39 47 43 43 43 46 52 51 53 56 58 58 62 61 62 65 58 58 59 58 56 57 58 61
39 36 26 31 29 37 43 42 41 48 50 49 49 49 43 45 42 44 44 45 45 40 43 41 47 49 51 50 54 54 53 55 59 61 62 60 59 60 59 59 59 58 57 59
38 44 28 36 44 47 48 46 45 51 50 49 44 43 43 42 41 43 45 42 41 41 38 43 48 50 51 52 54 53 52 51 54 57 59 58 57 57 56 57 56 57 57 56
41 41 41 44 42 42 46 43 43 47 48 46 43 40 41 42 42 41 41 43 40 42 46 48 48 48 50 52 52 53 52 54 54 54 55 56 58 56 54 55 54 54 55 53
43 39 44 46 44 46 42 43 43 47 44 39 39 36 38 43 40 40 45 41 43 47 47 45 46 47 49 51 53 54 54 52 52 52 52 52 53 54 53 51 53 54 55 55
MSLP
1022.05 1021.44 1020.79 1019.92 1018.88 1017.48 1016.34 1016.02 1014.12 1010.77 1010.15 1011.86 1012.60 1012.31 1010.79 1009.51 1008.22 1007.76 1007.58 1006.52 1006.06 1005.27 1005.05 1004.85 1004.49 1003.44 1002.91 1001.73 1001.09 1002.74 1002.92 1004.12 1004.15 1003.17 1002.14 1001.95 1002.39 1003.08 1004.21 1006.55 1007.98 1008.63 1008.56 1008.05
1021.97 1021.36 1020.67 1019.82 1019.16 1018.69 1018.49 1017.27 1014.63 1011.00 1010.72 1011.92 1012.65 1011.79 1010.62 1009.56 1008.59 1007.89 1007.46 1006.70 1005.90 1005.41 1005.19 1005.15 1004.49 1003.34 1002.17 1002.28 1001.90 1001.71 1002.26 1003.90 1004.35 1003.46 1002.61 1001.84 1002.03 1002.47 1003.34 1004.85 1006.29 1007.62 1008.29 1007.97
1022.06 1021.36 1020.51 1019.59 1018.70 1018.03 1018.18 1017.47 1015.55 1013.19 1012.37 1012.11 1012.30 1012.05 1010.97 1009.75 1008.26 1007.56 1007.03 1006.52 1006.04 1005.60 1005.25 1005.26 1004.76 1003.87 1002.73 1002.29 1001.83 1001.42 1001.65 1003.01 1003.58 1003.62 1002.87 1002.63 1002.30 1002.08 1002.53 1003.85 1005.73 1006.28 1006.70 1007.39
1022.10 1021.46 1020.67 1019.71 1018.50 1017.32 1017.38 1017.36 1016.76 1015.84 1014.92 1013.73 1013.29 1012.36 1011.24 1009.94 1008.87 1007.63 1006.86 1006.27 1005.86 1005.75 1005.68 1005.52 1005.23 1004.15 1003.60 1002.46 1002.08 1001.81 1002.45 1003.44 1003.25 1003.22 1002.85 1002.44 1002.27 1002.30 1002.60 1003.55 1003.87 1004.78 1005.16 1006.15
1022.16 1021.51 1020.85 1020.05 1019.04 1017.43 1017.44 1018.19 1018.04 1017.11 1016.06 1014.74 1013.75 1012.42 1011.36 1010.21 1009.06 1008.19 1007.14 1007.13 1006.03 1005.33 1005.52 1005.46 1005.28 1004.85 1004.35 1003.51 1002.72 1002.74 1003.03 1003.71 1003.60 1003.44 1002.90 1002.61 1002.33 1001.97 1002.15 1002.03 1002.40 1003.64 1004.10 1005.49
1022.46 1021.86 1021.40 1020.63 1019.93 1018.89 1019.28 1019.10 1018.69 1018.36 1016.95 1015.64 1014.60 1013.15 1012.36 1011.04 1010.09 1008.68 1008.01 1007.26 1006.39 1005.45 1004.79 1004.34 1004.39 1004.31 1004.29 1003.81 1003.59 1003.70 1004.09 1004.32 1004.80 1004.70 1003.86 1003.07 1002.75 1002.12 1001.98 1002.24 1002.48 1003.19 1003.67 1004.12
1022.71 1022.21 1021.64 1021.09 1020.80 1020.65 1020.87 1020.08 1019.69 1019.20 1018.02 1016.62 1015.34 1013.82 1012.64 1011.63 1010.98 1010.23 1008.49 1007.39 1006.53 1005.61 1004.69 1003.91 1003.86 1003.92 1003.89 1003.49 1003.66 1003.84 1004.43 1005.15 1005.47 1005.73 1004.96 1004.09 1002.73 1001.77 1001.73 1002.08 1002.41 1002.53 1003.34 1004.29
1022.76 1022.25 1021.74 1021.42 1021.13 1020.90 1021.11 1020.34 1020.05 1019.81 1018.95 1017.18 1015.53 1014.27 1013.25 1012.02 1011.16 1010.38 1009.34 1008.41 1007.70 1006.81 1005.70 1005.49 1005.02 1004.93 1004.51 1003.87 1003.88 1004.21 1004.66 1005.50 1006.28 1006.56 1006.18 1004.76 1003.21 1002.25 1002.16 1002.34 1003.14 1003.92 1004.37 1005.49
1022.71 1022.41 1021.90 1021.56 1021.29 1021.14 1021.09 1020.42 1019.69 1019.91 1019.76 1017.44 1016.24 1014.86 1013.91 1013.23 1012.43 1011.27 1010.27 1008.87 1007.75 1007.12 1007.10 1007.17 1006.95 1006.51 1005.61 1004.94 1004.48 1004.55 1005.13 1005.82 1007.01 1007.41 1006.90 1005.80 1004.14 1003.03 1002.35 1002.65 1003.89 1004.40 1005.38 1006.54
1022.82 1022.38 1022.00 1021.61 1021.38 1021.16 1021.17 1020.73 1019.91 1020.06 1019.93 1017.47 1016.45 1015.28 1014.47 1013.85 1013.46 1012.85 1011.87 1011.04 1009.67 1008.88 1009.00 1009.10 1008.61 1007.63 1006.38 1006.30 1005.86 1006.00 1006.46 1006.93 1007.56 1007.77 1007.26 1006.13 1005.32 1004.16 1002.97 1003.99 1005.29 1005.00 1005.71 1006.46
1022.84 1022.46 1022.16 1021.88 1021.57 1021.26 1021.24 1020.86 1020.23 1020.38 1020.17 1017.85 1016.47 1015.60 1014.88 1014.41 1014.02 1013.82 1012.75 1012.02 1011.81 1011.30 1011.02 1010.74 1009.76 1008.80 1007.62 1007.26 1007.31 1007.36 1007.82 1008.23 1008.31 1008.26 1008.09 1007.57 1006.43 1004.96 1005.46 1006.13 1005.87 1006.03 1006.62 1007.84
1022.85 1022.59 1022.24 1021.95 1021.70 1021.49 1021.24 1021.34 1020.43 1020.38 1020.50 1018.23 1016.56 1015.56 1014.81 1014.30 1013.85 1013.97 1013.46 1013.42 1013.26 1013.22 1013.18 1012.31 1011.32 1010.05 1009.31 1008.99 1008.98 1008.65 1008.99 1008.73 1008.72 1008.72 1008.91 1008.89 1008.29 1007.50 1007.07 1006.75 1006.89 1007.69 1008.00 1008.42
1022.73 1022.42 1022.13 1021.81 1021.57 1021.46 1021.40 1021.41 1021.11 1020.88 1020.39 1018.01 1016.25 1014.03 1012.52 1012.88 1012.77 1013.12 1013.77 1013.44 1012.99 1013.48 1013.78 1013.62 1012.36 1011.18 1010.34 1010.05 1009.95 1009.56 1009.14 1008.87 1009.10 1009.17 1009.67 1009.55 1009.04 1008.36 1007.50 1007.38 1007.68 1008.29 1008.72 1009.24
1022.45 1022.12 1021.83 1021.54 1021.33 1021.23 1021.18 1021.30 1021.14 1021.30 1020.60 1019.45 1015.45 1013.07 1012.38 1011.37 1011.70 1012.55 1012.58 1012.68 1013.05 1013.29 1013.91 1014.11 1013.16 1011.84 1010.58 1010.44 1010.00 1009.94 1009.70 1009.39 1009.46 1009.71 1009.59 1009.59 1009.55 1009.33 1008.79 1008.51 1008.54 1008.58 1008.96 1009.66
1022.17 1021.83 1021.53 1021.27 1021.06 1020.89 1020.76 1020.97 1020.43 1020.44 1020.63 1019.68 1016.75 1014.18 1011.94 1011.17 1011.04 1011.45 1011.85 1012.39 1012.95 1013.52 1014.05 1014.08 1013.88 1012.23 1011.25 1010.67 1010.14 1010.04 1009.76 1009.79 1009.90 1010.15 1009.68 1009.68 1010.02 1009.57 1008.97 1008.80 1008.74 1008.22 1008.91 1009.99
1021.87 1021.51 1021.17 1020.85 1020.70 1020.54 1021.00 1020.46 1019.50 1019.54 1019.57 1019.42 1017.88 1014.89 1012.69 1011.43 1010.64 1010.87 1011.21 1011.56 1012.09 1012.47 1013.19 1013.22 1012.49 1011.99 1012.61 1011.34 1010.83 1010.18 1009.55 1009.39 1009.34 1009.71 1009.57 1009.35 1009.76 1009.77 1009.57 1009.25 1008.98 1009.08 1009.11 1010.20
1021.40 1021.00 1020.67 1020.41 1020.26 1020.59 1020.53 1019.79 1019.30 1019.17 1019.33 1019.21 1018.21 1016.08 1013.01 1011.44 1010.99 1011.08 1011.27 1011.27 1011.55 1012.07 1012.36 1011.96 1011.60 1011.85 1011.39 1010.90 1010.85 1009.96 1009.75 1009.56 1009.42 1009.39 1009.52 1009.94 1010.00 1009.59 1009.50 1009.45 1009.75 1010.08 1010.48 1011.38
1020.85 1020.44 1020.13 1019.88 1019.69 1019.97 1019.56 1018.37 1018.27 1019.03 1019.18 1019.05 1018.43 1016.27 1014.02 1012.11 1012.03 1011.85 1011.27 1011.61 1011.72 1011.60 1011.37 1010.94 1011.08 1010.98 1010.91 1010.95 1009.92 1009.42 1009.25 1009.31 1009.38 1009.33 1009.33 1009.49 1009.56 1009.59 1009.92 1009.97 1010.25 1010.78 1011.42 1011.83
1020.18 1019.83 1019.57 1019.70 1019.71 1019.33 1018.37 1017.94 1018.20 1018.84 1019.50 1018.81 1017.91 1016.49 1014.74 1012.95 1012.50 1012.18 1011.69 1011.85 1012.07 1010.99 1011.00 1010.80 1011.15 1010.92 1010.86 1010.08 1009.53 1009.34 1009.16 1009.15 1009.06 1009.20 1009.43 1009.59 1009.86 1010.06 1010.16 1010.21 1010.79 1011.16 1011.89 1012.18
1019.05 1019.40 1019.46 1019.12 1018.36 1017.75 1018.06 1018.47 1018.69 1018.79 1018.69 1018.53 1017.76 1015.97 1014.92 1013.56 1013.24 1012.77 1012.60 1012.02 1011.68 1011.12 1010.42 1010.06 1010.55 1010.61 1009.75 1009.16 1008.81 1008.43 1008.34 1008.40 1008.51 1009.14 1009.58 1009.77 1010.15 1010.30 1010.41 1010.40 1010.81 1011.05 1011.38 1011.87
1019.22 1019.75 1019.53 1018.69 1018.02 1018.18 1018.14 1018.19 1018.27 1017.81 1017.59 1017.10 1016.09 1015.31 1014.72 1013.61 1013.76 1013.62 1013.05 1012.72 1012.09 1011.55 1010.44 1010.04 1010.36 1010.50 1009.80 1008.99 1008.49 1007.93 1007.68 1007.78 1007.82 1008.00 1008.24 1008.79 1009.12 1009.84 1010.24 1010.51 1010.74 1011.12 1011.45 1012.22
1020.96 1020.87 1020.31 1019.45 1018.62 1018.24 1018.17 1017.52 1017.09 1016.68 1015.65 1015.09 1014.62 1014.15 1013.99 1013.61 1013.27 1013.52 1013.22 1012.95 1012.34 1011.45 1010.49 1010.34 1010.71 1011.58 1010.84 1010.21 1009.39 1008.52 1008.04 1007.81 1007.34 1007.38 1007.91 1008.10 1008.74 1009.54 1010.17 1010.54 1011.00 1011.33 1011.61 1011.94
1020.17 1020.37 1020.07 1019.23 1018.60 1018.21 1017.48 1016.72 1016.11 1015.54 1014.94 1014.55 1014.13 1014.14 1013.89 1013.54 1013.36 1013.39 1013.20 1012.70 1011.91 1010.94 1010.67 1010.56 1011.68 1011.46 1010.80 1010.12 1009.25 1008.58 1007.77 1007.13 1006.92 1007.10 1007.66 1007.80 1008.59 1009.52 1009.93 1010.22 1010.75 1011.43 1012.02 1012.29
1020.35 1019.87 1019.73 1019.11 1018.16 1017.15 1016.26 1016.36 1015.76 1015.41 1014.81 1014.44 1014.12 1013.97 1013.96 1013.76 1013.76 1013.45 1013.07 1012.35 1011.70 1011.25 1011.16 1011.79 1011.72 1011.18 1010.89 1010.38 1009.82 1009.25 1008.55 1007.64 1006.83 1006.79 1007.11 1007.72 1008.30 1009.04 1009.53 1010.30 1010.60 1011.23 1011.94 1012.37
1019.97 1018.86 1018.48 1017.91 1016.84 1016.12 1015.61 1015.14 1015.04 1014.62 1014.39 1014.34 1014.26 1014.36 1014.51 1014.30 1014.01 1013.40 1012.91 1012.48 1011.86 1012.25 1012.54 1012.43 1012.15 1011.58 1010.93 1010.49 1009.99 1009.31 1008.93 1008.45 1007.25 1006.84 1007.36 1007.96 1008.54 1009.59 1010.22 1010.70 1011.16 1011.65 1011.98 1012.76
1019.17 1018.05 1017.52 1016.64 1016.40 1015.95 1015.62 1015.37 1015.36 1014.81 1014.47 1014.33 1014.75 1015.27 1015.25 1014.76 1014.39 1013.75 1012.83 1012.42 1012.37 1012.68 1012.56 1012.57 1012.22 1011.76 1011.39 1010.71 1009.89 1009.28 1009.03 1008.63 1007.91 1007.49 1007.75 1008.34 1008.77 1009.88 1011.02 1011.59 1012.15 1012.37 1012.78 1013.49
1018.47 1017.81 1016.81 1016.52 1016.16 1016.17 1015.94 1015.69 1015.53 1014.91 1015.08 1015.51 1015.56 1015.78 1015.64 1015.33 1014.64 1013.66 1012.87 1012.98 1013.00 1012.80 1012.36 1012.21 1011.88 1011.67 1011.14 1010.46 1009.68 1009.13 1009.19 1009.05 1009.08 1009.08 1009.58 1009.72 1010.40 1010.92 1011.70 1012.43 1013.03 1013.34 1013.91 1014.24
Wind_Speed
17 16 19 21 23 28 9 4 2 4 7 5 2 2 3 7 5 7 7 5 6 6 1 2 4 4 1 11 19 12 14 8 8 13 5 6 9 10 7 7 7 3 5 6
17 18 21 22 21 17 5 3 4 5 5 3 2 6 6 6 11 8 6 6 2 5 1 3 3 5 8 8 4 8 8 4 1 11 8 7 3 6 4 5 5 6 7 7
18 20 22 24 25 23 4 2 4 6 4 1 3 3 5 5 7 9 11 10 5 5 3 4 6 6 9 15 9 6 9 4 10 10 8 3 5 7 2 7 5 5 7 5
20 20 22 24 28 29 4 2 2 1 4 5 6 1 4 7 7 5 2 8 6 7 3 5 6 6 8 7 4 6 4 2 4 6 3 1 2 5 7 2 5 7 8 14
20 20 22 23 27 27 4 3 4 6 4 5 6 2 4 4 8 5 9 3 14 7 7 9 8 6 2 7 7 6 4 3 1 4 4 5 3 10 2 14 18 4 9 2
19 20 20 19 22 15 4 4 4 4 5 6 3 2 8 9 11 6 7 11 8 7 10 8 9 7 5 5 4 4 3 3 4 3 4 4 4 4 3 3 2 7 5 10
16 17 18 18 17 12 2 3 1 3 4 2 3 10 8 12 8 4 9 11 2 4 8 3 1 2 3 3 4 2 3 3 3 3 4 3 8 4 2 3 4 5 10 14
15 16 16 17 15 14 2 3 2 2 3 3 6 10 7 8 8 4 4 9 5 14 5 3 4 6 7 1 2 2 3 3 2 4 4 5 7 3 1 2 5 7 17 13
14 15 16 16 14 12 2 3 0 3 1 5 6 4 3 4 5 7 3 8 10 5 4 4 3 4 5 3 1 2 5 6 4 3 3 5 7 6 8 4 1 6 9 19
15 14 14 15 16 14 3 4 3 3 1 5 4 2 3 3 3 3 5 9 10 6 3 3 0 3 3 2 0 1 3 3 6 2 3 6 7 14 5 5 9 3 9 11
13 13 13 13 14 15 7 5 3 3 2 8 4 5 3 4 1 0 6 4 7 6 7 2 3 1 3 1 2 2 3 3 4 3 2 7 18 5 6 5 6 3 5 4
13 12 12 12 11 12 10 3 5 2 3 8 4 11 12 8 9 2 5 4 2 0 3 4 4 4 4 1 1 5 1 4 5 3 4 3 7 2 0 2 7 5 6 7
13 12 12 12 10 9 7 3 3 3 3 7 3 8 9 12 21 8 4 2 3 2 3 2 4 2 2 2 1 1 5 1 2 3 5 5 6 6 8 10 8 9 9 6
13 13 12 12 11 10 8 4 3 2 2 2 8 4 9 7 9 12 10 3 3 4 2 1 3 2 2 2 3 3 4 3 2 3 1 3 9 4 3 9 6 8 10 12
14 14 13 13 12 11 6 3 4 4 3 3 8 15 7 8 7 12 9 8 5 3 3 2 2 5 4 4 1 1 1 4 3 4 4 3 1 3 5 8 7 11 15 12
15 15 15 14 12 8 3 3 2 5 3 3 5 6 7 7 4 6 6 3 3 3 5 3 3 6 5 1 0 5 2 2 4 4 2 4 6 4 5 3 5 5 9 14
17 16 15 13 9 2 3 1 3 3 2 2 5 6 7 5 5 2 1 0 2 4 4 5 4 5 5 2 2 5 6 3 5 6 6 4 7 4 3 4 7 11 12 9
18 17 15 12 5 2 5 4 10 4 0 1 3 6 5 5 4 3 2 2 2 3 4 2 4 2 2 3 7 6 4 7 5 6 4 2 3 5 5 6 12 12 11 10
20 18 10 1 1 2 3 6 9 2 2 2 2 3 4 2 3 3 5 3 2 3 4 5 4 2 5 8 8 5 6 7 6 6 3 5 2 2 6 9 9 12 9 9
16 1 0 2 4 10 6 2 2 2 2 2 3 3 3 3 3 3 3 2 3 1 6 3 5 5 6 6 9 9 9 8 6 6 4 4 3 7 8 9 8 12 12 11
4 3 1 3 3 3 2 2 2 2 3 4 5 6 3 3 1 3 1 2 2 1 6 5 2 3 6 8 7 7 9 9 9 9 8 10 8 11 8 6 9 7 10 8
4 4 5 3 1 2 1 3 2 3 4 3 3 3 4 4 2 3 3 1 3 5 3 1 2 3 7 7 7 9 5 10 10 9 9 7 7 8 7 7 9 8 9 14
1 1 2 2 2 3 3 2 1 3 5 3 3 3 1 4 3 2 1 2 5 2 1 2 2 5 8 8 8 12 12 7 10 7 8 8 11 9 8 9 6 7 8 12
1 3 3 4 4 4 2 5 4 4 3 4 3 2 1 1 2 2 2 4 3 3 2 4 6 11 10 8 9 8 11 15 8 10 10 9 12 11 9 10 11 10 11 11
3 3 4 5 6 4 3 3 2 2 2 3 3 3 3 2 2 2 2 3 3 4 1 3 6 10 11 12 11 10 6 9 6 5 6 9 10 10 8 5 7 9 10 9
3 3 3 4 1 5 3 2 2 3 3 2 4 3 2 2 3 3 5 3 3 1 2 4 7 7 9 11 12 11 4 2 8 8 10 13 16 17 9 9 8 7 9 8
3 4 3 6 4 4 1 2 3 3 3 1 2 1 2 2 3 4 3 2 2 6 7 4 5 7 10 11 8 3 5 9 9 12 11 14 13 14 14 14 10 11 10 11
Wind_Direction
348 355 350 348 348 344 22 338 14 308 115 77 181 212 240 328 324 330 289 259 239 230 21 300 317 240 286 307 218 159 201 167 232 243 242 196 189 210 155 127 256 181 150 262
5 358 352 350 351 4 324 340 273 302 80 129 258 279 262 247 277 270 274 322 331 320 142 320 233 297 298 330 296 191 179 212 292 324 348 348 183 190 171 106 79 199 140 247
1 358 354 350 346 345 133 25 12 336 15 27 124 324 278 273 278 285 246 259 283 270 297 181 274 287 302 331 324 331 92 127 168 194 207 181 333 316 242 132 118 208 210 179
1 359 356 354 348 348 110 60 326 34 331 337 332 282 278 282 297 251 9 318 214 234 261 332 272 284 311 311 330 357 71 147 157 161 205 154 278 298 2 326 240 153 220 170
360 359 359 1 357 344 68 57 27 343 290 301 349 311 260 266 301 240 292 295 303 238 192 187 272 295 258 266 333 15 12 275 83 350 26 38 14 325 348 331 307 203 123 249
358 1 360 7 9 9 40 322 341 111 284 324 345 333 349 343 4 308 326 311 279 297 262 202 205 208 224 232 317 329 52 113 70 282 352 28 18 265 224 242 293 195 161 207
355 358 1 9 16 28 183 265 4 53 285 311 337 316 333 336 350 257 309 318 209 287 296 273 33 52 288 73 1 99 27 77 101 200 46 240 239 264 269 133 17 320 84 112
352 355 2 6 13 10 12 285 53 66 276 313 307 335 330 325 334 324 292 341 291 303 350 31 37 345 4 277 246 10 99 97 76 138 175 277 330 316 307 106 342 57 115 112
349 359 355 2 6 4 13 273 170 93 109 235 289 290 344 342 322 323 312 322 318 328 74 43 142 189 228 285 209 59 85 99 126 121 157 207 231 302 286 135 338 110 145 143
347 349 351 355 1 0 0 275 327 88 234 269 22 8 268 309 337 281 318 331 341 12 36 49 127 262 204 230 179 287 348 356 180 194 205 284 335 320 318 120 237 123 153 154
341 344 349 351 352 355 9 275 305 93 281 280 259 298 259 327 72 59 290 19 354 357 32 56 264 182 264 82 36 354 209 167 211 114 129 274 350 6 78 232 353 12 94 104
334 336 337 342 346 348 0 325 333 15 177 254 297 262 247 213 233 104 333 162 185 276 6 359 322 350 17 30 197 348 306 191 179 139 178 243 302 34 263 66 80 33 63 69
331 330 330 331 333 337 338 285 298 352 294 292 321 253 260 213 227 187 181 267 123 55 156 283 263 355 100 55 283 309 318 346 123 89 15 60 27 15 66 63 66 82 68 54
328 327 323 321 319 316 313 289 266 285 257 285 283 334 310 303 167 195 205 142 75 103 72 196 302 334 53 249 196 142 208 349 23 48 12 171 42 42 86 90 71 78 79 99
329 327 323 319 315 309 295 230 244 196 138 278 287 307 254 262 209 201 203 159 155 138 110 130 260 303 28 301 77 336 27 196 139 204 256 130 223 239 137 107 121 130 123 100
324 322 320 315 312 305 25 321 240 209 186 293 312 297 295 325 195 188 222 205 178 149 143 215 196 303 234 218 18 258 179 142 160 167 230 151 161 234 321 141 124 107 99 122
319 316 313 310 297 153 192 271 190 25 197 264 303 305 273 294 232 280 170 143 195 149 204 216 195 218 180 137 176 234 241 200 137 141 121 95 208 185 209 107 101 85 91 105
314 311 310 308 264 238 307 247 221 156 212 222 282 271 329 343 349 302 173 185 135 258 209 339 181 332 100 233 236 252 226 174 188 198 201 170 117 112 171 138 121 111 117 116
307 308 303 359 188 227 246 125 122 139 164 262 263 285 299 321 249 228 345 101 158 246 182 215 122 227 217 217 197 219 186 177 205 225 190 152 129 164 145 131 130 125 136 132
303 122 115 257 229 124 102 60 122 192 229 215 242 264 277 49 345 302 7 345 245 255 227 114 163 230 235 225 219 211 226 220 146 130 176 158 176 184 186 166 156 155 159 151
20 355 281 327 191 39 224 240 201 215 214 200 232 202 228 297 81 253 199 261 284 357 262 129 213 269 288 312 253 249 217 207 206 193 194 190 184 185 180 172 166 139 143 145
244 269 286 293 284 241 344 246 238 207 241 190 219 249 195 276 82 50 318 260 8 243 315 155 145 312 302 335 330 352 276 229 212 192 182 215 163 137 148 151 164 163 149 146
349 124 281 113 269 32 244 298 346 353 353 343 331 314 202 348 11 283 12 281 240 316 284 174 107 273 340 337 341 344 334 285 211 189 143 155 150 160 184 149 140 146 140 154
239 167 318 156 276 242 166 198 205 224 235 276 253 291 172 260 10 249 278 258 335 294 31 27 330 332 332 326 324 332 330 336 217 193 161 142 156 170 153 148 151 145 141 144
254 203 224 216 233 257 244 205 32 289 299 322 357 18 46 302 299 228 335 291 237 75 218 242 303 298 326 332 328 317 330 322 321 189 147 136 111 100 89 100 116 125 118 127
243 254 317 297 151 300 311 29 348 331 328 43 51 45 345 304 328 285 227 239 54 49 257 299 302 315 318 308 313 302 298 337 32 61 107 122 126 142 129 110 112 113 117 120
283 267 264 257 214 184 326 82 318 308 57 24 95 53 241 309 251 255 16 49 325 304 296 276 272 286 294 302 302 74 100 77 75 76 78 90 97 102 104 99 91 93 95 99